Terminal Aerodrome Forecast
Issued by NWS

Home | Current Version | Previous Version | Graphics & Text | Print | Product List | Glossary On
Versions: 1 2 3 4 5 6 7 8 9 10 11 12 13 14 15 16 17 18 19 20 21 22 23 24 25 26
843
FTUS43 KABR 132157 AAA
TAFATY
TAF AMD
KATY 132157Z 1322/1418 34014KT P6SM OVC011
     FM140000 34012KT P6SM OVC020
     FM140400 34010KT P6SM BKN020
     FM141300 30006KT P6SM BKN015=

USA.gov is the U.S. government's official web portal to all federal, state and local government web resources and services.